Tracking 31027 objects as of 19-Jul-2025
HD Live streaming from Space Station
objects crossing your sky now

STARLINK-3286

Track STARLINK-3286 now!
10-day predictions
STARLINK-3286 is classified as:


NORAD ID: 50171
Int'l Code: 2021-125R
Perigee: 546.3 km
Apogee: 547.5 km
Inclination: 53.2 °
Period: 95.4 minutes
Semi major axis: 6917 km
RCS: Unknown
Launch date: December 18, 2021
Source: United States (US)
Launch site: AIR FORCE WESTERN TEST RANGE (AFWTR)
Your satellite tracking list
TITAN 3C TRANSTAGE DEB
Track 1 satellite(s)




NASA's NSSDC Master Catalog

Two Line Element Set (TLE):
1 50171U 21125R   25199.42631598  .00000268  00000-0  34890-4 0  9993
2 50171  53.2163 220.7721 0000830  82.5832 277.5254 15.08833616201237
Source of the keplerian elements: AFSPC